Flag for Switzerland Weather past 2 weeks in Winterthur, Switzerland

Now
36 °F

Passing clouds.


Feels Like: 32 °F
Forecast: 32 / 49 °F
Wind: 5 mph from Southeast

Location: Zurich-Kloten

Current Time: Dec 22, 2014 at 9:21:47 PM

Latest Report: Dec 22, 2014 at 8:50 PM


Visibility: N/A

Pressure: 30.39 "Hg

Humidity: 87%

Dew point: 32 °F

Location of WinterthurLocation

Historic Weather in Winterthur — Graph

°F

Winterthur temperature yesterday

Maximum temperature yesterday: 45 °F (at 12:20 PM)
Minimum temperature yesterday: 32 °F (at 9:20 PM)
Average temperature yesterday: 39 °F

Past Weeks' High & Low Weather Summary

 TemperatureHumidityPressure
High54 °F (Dec 13, 1:20 PM)100% (Dec 8, 8:50 PM)30.57 "Hg (Dec 8, 8:50 PM)
Low28 °F (Dec 9, 9:20 PM)46% (Dec 12, 7:20 PM)29.83 "Hg (Dec 12, 7:20 PM)
Average42 °F83%30.15 "Hg
* Reported Dec 7 8:20 PM — Dec 22 8:20 PM, Winterthur, Weather by CustomWeather, © 2014

Note: Actual official high and low records may vary slightly from our data, if they occured in-between our weather recording intervals... More about our weather records

Advertising

Winterthur weather history for previous 24 hours

 ConditionsComfort  
Time TempWeatherWind HumidityBarometerVisibility
8:20 PM
Dec 22
37 °FPassing clouds.5 mph81%30.39 "HgN/A
7:50 PM37 °FClear.6 mph81%30.39 "Hg10 mi
7:20 PM39 °FPassing clouds.6 mph81%30.36 "HgN/A
6:50 PM37 °FClear.6 mph81%30.36 "Hg10 mi
6:20 PM39 °FClear.5 mph81%30.39 "Hg10 mi
5:50 PM41 °FClear.10 mph76%30.36 "Hg10 mi
5:20 PM39 °FClear.8 mph81%30.36 "Hg10 mi
4:50 PM41 °FClear.5 mph76%30.39 "Hg10 mi
4:20 PM43 °FSunny.3 mph71%30.39 "Hg10 mi
3:50 PM43 °FSunny.2 mph71%30.39 "Hg10 mi
3:20 PM43 °FPassing clouds.5 mph71%30.39 "HgN/A
2:50 PM43 °FSunny.5 mph71%30.39 "Hg10 mi
2:20 PM43 °FSunny.5 mph71%30.39 "Hg10 mi
1:50 PM43 °FPassing clouds.7 mph71%30.42 "HgN/A
1:20 PM43 °FPassing clouds.6 mph71%30.42 "HgN/A
12:50 PM43 °FScattered clouds.5 mph71%30.42 "HgN/A
12:20 PM41 °FScattered clouds.6 mph76%30.45 "HgN/A
11:50 AM41 °FScattered clouds.7 mph76%30.45 "HgN/A
11:20 AM39 °FScattered clouds.7 mph81%30.45 "HgN/A
10:50 AM39 °FScattered clouds.5 mph75%30.48 "HgN/A
10:20 AM37 °FScattered clouds.3 mph81%30.45 "HgN/A
9:50 AM34 °FScattered clouds.3 mph87%30.45 "HgN/A
9:20 AM34 °FScattered clouds.2 mph87%30.45 "HgN/A
8:50 AM32 °FScattered clouds.3 mph93%30.45 "HgN/A
8:20 AM34 °FScattered clouds.3 mph87%30.45 "HgN/A
7:50 AM32 °FPassing clouds.5 mph93%30.45 "HgN/A
7:20 AM32 °FPassing clouds.3 mph93%30.45 "HgN/A
6:50 AM30 °FPassing clouds.5 mph93%30.45 "HgN/A
6:20 AM34 °FPassing clouds.2 mph87%30.45 "HgN/A
5:50 AM34 °FPassing clouds.1 mph87%30.45 "HgN/A
5:20 AM34 °FPassing clouds.1 mph87%30.45 "HgN/A
4:50 AM34 °FPassing clouds.3 mph87%30.45 "HgN/A
4:20 AM36 °FPassing clouds.6 mph87%30.45 "HgN/A
3:50 AM36 °FPassing clouds.3 mph81%30.48 "HgN/A
3:20 AM34 °FPassing clouds.2 mph87%30.48 "HgN/A
2:50 AM34 °FPassing clouds.2 mph87%30.48 "HgN/A
2:20 AM36 °FPassing clouds.1 mph87%30.48 "HgN/A
1:50 AM34 °FPassing clouds.3 mph87%30.48 "HgN/A
12:50 AM34 °FClear.2 mph87%30.48 "Hg10 mi
12:20 AM34 °FPassing clouds.3 mph87%30.48 "HgN/A
11:50 PM
Dec 21
34 °FPassing clouds.3 mph87%30.51 "HgN/A
11:20 PM32 °FPassing clouds.3 mph93%30.51 "HgN/A
10:20 PM34 °FClear.5 mph87%30.51 "Hg10 mi
9:50 PM36 °FClear.5 mph81%30.51 "Hg10 mi
9:20 PM32 °FClear.3 mph93%30.51 "Hg10 mi
Weather by CustomWeather, © 2014

See weather overviewHow to use our weather pages